CZ-6A DEB, 56620

Orbit data source: Space-Track

CZ-6A DEB, 56620 is space debris in SSO originally from a launch on Fri, 11 Nov 2022 UTC launched from the Taiyaun Space Center, China (TSC). Debris objects in space refer to the collection of defunct objects orbiting the Earth. Examples of debris include non-operational satellites, rocket bodies, and fragments generated from explosions, collisions, or faulty payload assembly.

Loading next visibility...
Identifier
56620, 2022-151AEU
Orbit
SSO
Country
Flag of CNCN / PRC
Related business
Manufacturer
SAST
Mission
Spacecraft
Bus & Motor
Unknown
Mass
Unknown
Launch date (UTC)
2022-11-11 (3 years ago)
Launch vehicle
Unknown
Launch site
Taiyaun Space Center, China (TSC)
Object type
Payload
Rocket body
Debris
Shape & HBR
Unknown shape, 0.1 m
Radar Cross Section
Small (<0.1 m²)

Expand to show TLE details & history
Last TLE update: 20 hours ago

TLE from 20 hours ago
0 CZ-6A DEB
1 56620U 22151AEU 26129.83219512  .00000431  00000-0  36151-3 0  9998
2 56620  98.9320  87.8942 0154979 217.3562 141.6740 13.87928802158882
Epoch: 2026-05-09T19:58Z
TLE epoch observation values (Epoch: 2026-05-09T19:58:21.658Z)
Latitude
-0.00005°
Longitude
-79.34001°
Altitude
1,028.366 km
Speed
7.293 km/s
True Right ascension
05h 51m 34s
True Declination
0° 00' 00"
Sunlit
Object was in daylight at epoch
Visualization orbit readout
Latitude
Unknown
Longitude
Unknown
Altitude
Unknown
Speed
Unknown
Apparent Right ascension
Unknown
Apparent Declination
Unknown
Sunlit
N/A
Visualization observer readout
Local Sidereal Time
00:22:32
Azimuth
Unknown
Elevation
Unknown
Doppler factor
Unknown
Orbital elements
Apogee altitude
1,046.418 km
Perigee altitude
819.801 km
Semi-major axis
7,311.247 km
Eccentricity
0.0155
Inclination
98.932°
RAAN
87.8942°
Arg. of periapsis
217.3562°
True anomaly
142.75875°
Mean anomaly
141.674°
Eccentric anomaly
142.21802°
Mean motion
3.47181 °/min
Orbital period
103.69 mins
BSTAR
0.00036151
Loading maneuver chart data...
Computing Atmospheric mass density...
Loading historical data...
Loading historical data...
Loading historical data...
Loading historical data...
Loading historical data...
Loading historical data...
Loading historical data...

Documentation

Showing up to 5 results
|